{"data":{"norad_id":59964,"intl_designator":"2024-107V","name":"STARLINK-31979","alt_names":[],"object_type":"PAYLOAD","status":"ACTIVE","operator":null,"country":"US","launch_date":"2024-06-05","launch_site_code":"AFETR","launch_vehicle":null,"mission":null,"orbit_class":"UNKNOWN","rcs_meters":null,"size_class":null,"mass_kg":null,"dimensions":null,"purposes":["comms"],"wikipedia_slug":null,"has_3d_model":false,"image_url":null,"decayed_at":null,"tle_current":{"epoch":"2026-09-21T21:44:07.448928Z","epoch_age_seconds":56194,"freshness":"FRESH","line1":"1 59964U 24107V   26264.90564177  .00002331  00000+0  80109-4 0  9996","line2":"2 59964  53.1610 230.8905 0001708  93.4434 266.6764 15.34405715129836","mean_motion":15.34405715,"eccentricity":0.0001708,"inclination_deg":53.161,"raan_deg":230.8905,"arg_perigee_deg":93.4434,"mean_anomaly_deg":266.6764,"bstar":8.0109e-5,"rev_number":12983,"period_min":93.847408538882,"perigee_km":461.51784146365,"apogee_km":463.85466668724,"semimajor_km":6840.8232540754,"source":"CELESTRAK","updated_at":"2026-09-22T09:00:49.136920Z"}}}